This is the latest recevied weather packets stored in our database for station/object IW1RID-3. If no packets are shown the sender has not sent any weather packets the latest 10 day(s).
| Time | Temp. | Humidity | Pressure | Rain* | Wind** | Luminosity | Snow |
|---|---|---|---|---|---|---|---|
| 1787901157 | 27.22° C | 63% | 1074.1 hPa | - | - | - | - |
| 1787899953 | 26.67° C | 63% | 1072.9 hPa | - | - | - | - |
| 1787898748 | 27.78° C | 55% | 1072.5 hPa | - | - | - | - |
| 1787897543 | 26.67° C | 60% | 1072.5 hPa | - | - | - | - |
| 1787896338 | 26.11° C | 61% | 1072.4 hPa | - | - | - | - |
| 1787895133 | 25.56° C | 64% | 1073.2 hPa | - | - | - | - |
| 1787893928 | 26.11° C | 61% | 1073 hPa | - | - | - | - |
| 1787891519 | 25.56° C | 63% | 1073.5 hPa | - | - | - | - |
| 1787890314 | 25.56° C | 67% | 1073.6 hPa | - | - | - | - |
| 1787889109 | 26.11° C | 62% | 1073.1 hPa | - | - | - | - |
| 1787887905 | 25° C | 72% | 1073.4 hPa | - | - | - | - |
| 1787886700 | 25.56° C | 64% | 1073.1 hPa | - | - | - | - |
| 1787885504 | 25.56° C | 68% | 1073 hPa | - | - | - | - |
| 1787884291 | 24.44° C | 79% | 1073.9 hPa | - | - | - | - |
| 1787883086 | 24.44° C | 79% | 1072.8 hPa | - | - | - | - |
| 1787881882 | 25° C | 78% | 1073.2 hPa | - | - | - | - |
| 1787880684 | 25.56° C | 75% | 1073.4 hPa | - | - | - | - |
| 1787879472 | 25.56° C | 77% | 1073.5 hPa | - | - | - | - |
| 1787878268 | 25.56° C | 74% | 1072.9 hPa | - | - | - | - |
| 1787877063 | 25.56° C | 78% | 1073.9 hPa | - | - | - | - |
| 1787875858 | 25.56° C | 76% | 1074.3 hPa | - | - | - | - |
| 1787874653 | 25.56° C | 78% | 1074.1 hPa | - | - | - | - |
| 1787873449 | 25.56° C | 78% | 1074.8 hPa | - | - | - | - |
| 1787872245 | 25° C | 84% | 1073.3 hPa | - | - | - | - |
| 1787871040 | 25.56° C | 80% | 1073.4 hPa | - | - | - | - |
* Rain since midnight (hover to see other rain measurements)
** Current wind speed in m/s (hover to see current wind gust speed)